EW2664 Weather Reports


Display with metric or nautical units.
time (UTC)temp
F
wind
direction
speed
MPH
gust
MPH
rain 1hr
in
rain 24hr
in
rain mn
in
humidity
%
barometer
mb
20260503224524 78 86 1.0 3.0 0.00 0.84 0.84 77 1013.8
20260503223011 78 350 1.0 4.0 0.00 0.84 0.84 77 1013.9
20260503221519 78 55 1.0 4.0 0.00 0.84 0.84 78 1013.8
20260503220039 79 33 1.0 4.0 0.00 0.84 0.84 78 1014.0
20260503214524 79 352 1.0 3.0 0.00 0.84 0.84 77 1014.0
20260503213013 79 51 2.0 4.0 0.00 0.84 0.84 77 1013.9
20260503211516 80 44 2.0 5.0 0.00 0.84 0.84 76 1013.9
20260503210022 80 360 1.0 5.0 0.00 0.84 0.84 76 1014.3
20260503204522 81 30 2.0 4.0 0.00 0.84 0.84 76 1014.2
20260503203031 81 48 2.0 5.0 0.00 0.84 0.84 73 1014.3
20260503201518 81 59 2.0 4.0 0.00 0.84 0.84 73 1014.3
20260503200020 81 360 1.0 3.0 0.00 0.84 0.84 71 1014.3
20260503194524 81 54 1.0 3.0 0.00 0.84 0.84 72 1014.5
20260503193032 82 71 0.0 2.0 0.00 0.84 0.84 69 1014.5
20260503191528 82 346 1.0 8.0 0.00 0.84 0.84 71 1014.7
20260503190016 81 78 1.0 3.0 0.00 0.84 0.84 73 1015.0
20260503184524 80 49 1.0 4.0 0.00 0.84 0.84 75 1015.2
20260503183036 80 9 1.0 3.0 0.00 0.84 0.84 74 1015.4
20260503181527 80 37 0.0 3.0 0.00 0.84 0.84 75 1015.5
20260503180010 80 28 2.0 4.0 0.00 0.84 0.84 75 1015.8
20260503174505 79 100 1.0 4.0 0.00 0.84 0.84 77 1015.9
20260503173003 79 24 1.0 3.0 0.00 0.84 0.84 77 1016.2
20260503171504 79 122 0.0 2.0 0.00 0.84 0.84 78 1016.2
20260503081515 77 342 1.0 4.0 0.00 0.00 0.00 80 1013.9
20260503071512 78 275 0.0 2.0 0.00 0.00 0.00 82 1012.7
20260503054519 78 255 0.0 0.0 0.00 0.00 0.00 81 1013.8
20260503053020 78 281 0.0 0.0 0.00 0.00 0.00 81 1014.2
20260503051517 78 256 0.0 0.0 0.00 0.00 0.00 80 1014.4
20260503050032 78 206 0.0 1.0 0.00 0.00 0.00 79 1014.5
20260503044515 78 272 0.0 2.0 0.00 0.00 0.00 79 1014.8
20260503043006 79 191 0.0 2.0 0.00 0.00 0.00 78 1014.6
20260503041509 79 261 0.0 2.0 0.00 0.00 0.00 77 1014.6
20260503040011 79 288 0.0 3.0 0.00 0.00 0.00 77 1014.6
20260503034514 79 215 0.0 4.0 0.00 0.00 0.00 77 1014.4
20260503033004 79 246 0.0 3.0 0.00 0.00 0.00 76 1014.3
20260503031508 80 207 0.0 4.0 0.00 0.00 0.00 75 1013.9
20260503030008 80 279 0.0 6.0 0.00 0.00 0.00 73 1013.9
20260503024511 80 247 1.0 3.0 0.00 0.00 0.00 72 1013.9
20260503023013 81 242 0.0 2.0 0.00 0.00 0.00 71 1013.9
20260503021507 81 195 0.0 2.0 0.00 0.00 0.00 70 1013.8
20260503020007 81 261 0.0 2.0 0.00 0.00 0.00 69 1013.5
20260503014521 82 267 1.0 4.0 0.00 0.00 0.00 68 1013.7
20260503013024 82 246 1.0 7.0 0.00 0.00 0.00 66 1013.6
20260503011514 82 254 2.0 7.0 0.00 0.00 0.00 64 1013.5
20260503010008 82 256 0.0 6.0 0.00 0.00 0.00 62 1013.2
20260503004540 83 248 1.0 6.0 0.00 0.00 0.00 60 1012.9
20260503003015 84 298 2.0 7.0 0.00 0.00 0.00 58 1012.9
20260503001516 84 311 1.0 6.0 0.00 0.00 0.00 56 1012.7
20260503000012 85 233 2.0 6.0 0.00 0.00 0.00 54 1012.5
20260502234512 87 267 2.0 8.0 0.00 0.00 0.00 51 1012.3
20260502233016 88 328 1.0 4.0 0.00 0.00 0.00 47 1011.9
20260502231516 89 149 1.0 4.0 0.00 0.00 0.00 46 1011.7
20260502230017 90 240 2.0 8.0 0.00 0.00 0.00 43 1011.5